Weather History for Aydin, Turkey

Change the Weather History Date:

Friday, July 26, 2013

  Actual Average Record
Temperature  
Mean Temperature 84 °F -  
Max Temperature 100 °F - - ()
Min Temperature 71 °F - - ()
Cooling Degree Days 18    
Growing Degree Days 34 (Base 50)    
Moisture  
Dew Point 45 °F    
Average Humidity 22    
Maximum Humidity 43    
Minimum Humidity 7    
Precipitation  
Precipitation 0.00 in - - ()
Sea Level Pressure  
Sea Level Pressure 29.75 in    
Wind  
Wind Speed 7 mph ()    
Max Wind Speed 16 mph    
Max Gust Speed -    
Visibility 12.0 miles    
Events      
T = Trace of Precipitation, MM = Missing Value Source: Averaged Metar Reports

Daily Weather History Graph

Daily Weather History Graph

Search for Another Location

Airport:

Trip Planner

Search our weather history database for the weather conditions in past years. The results will help you decide how hot, cold, wet, or windy it might be!

Date:

Astronomy

Jul. 26, 2013 Rise Set
Actual Time 6:06 AM EEST 8:22 PM EEST
Civil Twilight 5:37 AM EEST 8:52 PM EEST
Nautical Twilight 5:00 AM EEST 9:28 PM EEST
Astronomical Twilight 4:20 AM EEST 10:08 PM EEST
Moon 10:32 PM EEST (7/26) 10:15 AM EEST (7/26)
Length of Visible Light 15h 15m
Length of Day
14h 15m
Waning Gibbous, 83% of the Moon is Illuminated
Jul 26
Waning Gibbous
Jul 29
Last Quarter
Aug 7
New
Aug 14
First Quarter
Aug 21
Full

Hourly Weather History & Observations

Time (EEST) Temp. Dew Point Humidity Pressure Visibility Wind Dir Wind Speed Gust Speed Precip Events Conditions
3:00 AM 76 °F 48 °F 27% 29.78 in 12 mi East 2.3 mph - -  
6:11 AM 71.6 °F 48.2 °F 43% 29.77 in - ENE 6.9 mph - N/A   Clear
6:50 AM 73.4 °F 44.6 °F 36% 29.80 in - ENE 8.1 mph - N/A   Clear
7:50 AM 75.2 °F 46.4 °F 36% 29.80 in - ENE 4.6 mph - N/A   Clear
8:50 AM 80.6 °F 48.2 °F 32% 29.80 in - NE 4.6 mph - N/A   Clear
9:00 AM 82 °F 44 °F 17% 29.80 in 12 mi SSW 1.2 mph - -  
9:50 AM 84.2 °F 48.2 °F 29% 29.80 in - East 13.8 mph - N/A   Clear
10:50 AM 87.8 °F 48.2 °F 25% 29.77 in - East 16.1 mph - N/A   Clear
11:50 AM 91.4 °F 42.8 °F 18% 29.77 in - East 16.1 mph - N/A   Clear
12:50 PM 93.2 °F 42.8 °F 17% 29.77 in - East 15.0 mph - N/A   Clear
1:50 PM 95.0 °F 44.6 °F 18% 29.74 in - East 12.7 mph - N/A   Clear
2:50 PM 96.8 °F 41.0 °F 15% 29.74 in - East 8.1 mph - N/A   Clear
3:00 PM 96 °F 40 °F 7% 29.74 in 12 mi ESE 3.5 mph - -  
3:50 PM 96.8 °F 39.2 °F 14% 29.71 in - East 9.2 mph - N/A   Clear
4:50 PM 96.8 °F 50.0 °F 20% 29.71 in - NW 8.1 mph - N/A   Clear
5:50 PM 96.8 °F 39.2 °F 14% 29.68 in - North 9.2 mph - N/A   Clear
6:50 PM 96.8 °F 39.2 °F 14% 29.68 in - NNE 5.8 mph - N/A   Clear
7:50 PM 91.4 °F 46.4 °F 21% 29.68 in - North 13.8 mph - N/A   Clear
9:00 PM 90 °F 45 °F 13% 29.71 in 12 mi NNW 5.8 mph - -